sat.trackr.live / text

‹ back to catalog

LEMUR-2-JESS-R

NORAD 69926 · 2026-156BK

PAYLOAD ACTIVE UNKNOWN

§ Identity

Operator
Country
US
Launch date
2026-07-07
Launch site
AFWTR
Launch vehicle
Mass (kg)
RCS (m²)

External: N2YO · Heavens-Above · Gunter

§ Orbital elements

Epoch: 2026-09-20T04:01:33.848832Z

Period
96.48 min
Inclination
97.7494°
Eccentricity
0.0006693
Mean motion
14.92597615 rev/d
Perigee alt
585.2 km
Apogee alt
594.5 km
Semi-major
6,968.0 km
B*
1.8681e-4
RAAN
162.4805°
Arg perigee
281.1750°
Mean anomaly
78.8716°
Rev number
1,116

§ Raw data

LEMUR-2-JESS-R1 69926U 26156BK  26263.16775288  .00001866  00000+0  18681-3 0  99922 69926  97.7494 162.4805 0006693 281.1750  78.8716 14.92597615 11163

JSON: /api/v1/satellites/69926 · /tle

For live sub-satellite position, see the globe view (requires WebGL).

§ Visibility from observer

Set your observer location to see the next 7 days of passes ≥ 10°. The values pass through the URL so the page stays shareable.

No JS? Fill the form by hand. The geolocation button needs JavaScript.